Weather Roundup
Issued by NWS Chicago, IL

Home | Current Version | Previous Version | Graphics & Text | Print | Product List | Glossary On
Versions: 1 2 3 4 5 6 7 8 9 10 11 12 13 14 15 16 17 18 19 20 21 22 23 24 25 26 27 28 29 30 31 32 33 34 35 36 37 38 39 40 41 42 43 44 45 46 47 48 49 50
000
NZUS59 KLOT 011602
HRRLOT

CHICAGO AREA WEATHER ROUNDUP
NATIONAL WEATHER SERVICE CHICAGO/ROMEOVILLE IL
1100 AM CDT SAT AUG 01 2015

NOTE: "FAIR" INDICATES FEW OR NO CLOUDS BELOW 12,000 FEET WITH NO
SIGNIFICANT WEATHER AND/OR OBSTRUCTIONS TO VISIBILITY.

* THESE STATIONS ARE NOT UNDER NWS QUALITY CONTROL. THEY ALSO MAY NOT
  REPORT WEATHER SUCH AS PRECIPITATION OR FOG.

ILZ005-006-012>014-019>023-011700-
NORTHEAST ILLINOIS

CITY           SKY/WX    TMP DP  RH WIND       PRES   REMARKS
OHARE          MOSUNNY   80  56  43 W14       29.99R HX  80
MIDWAY         MOSUNNY   83  54  36 W15       29.99R HX  82
AURORA         PTSUNNY   79  60  52 W9        30.02R HX  80
WAUKEGAN       SUNNY     80  56  43 W6        29.98R HX  80
DUPAGE AIRPORT PTSUNNY   79  57  46 W10       30.00R HX  80
WHEELING       MOSUNNY   82  56  40 NW12      30.00R HX  82
NORTHERLY IS     N/A     81  50  33 W8          N/A  HX  80
$$

WIZ051-052-058>065-066-070>072-011700-
SOUTHEAST WISCONSIN

CITY           SKY/WX    TMP DP  RH WIND       PRES   REMARKS
MILWAUKEE      PTSUNNY   80  51  36 NW13      29.96S HX  80
KENOSHA*       SUNNY     80  58  46 NW9       29.98S HX  80
RACINE*        SUNNY     80  53  39 NW10      29.98S HX  80
WAUKESHA       MOSUNNY   70  55  60 W13       30.02R
$$

INZ001>003-010>013-019-020-011700-
NORTHWEST INDIANA

CITY           SKY/WX    TMP DP  RH WIND       PRES   REMARKS
GARY*          MOSUNNY   82  52  34 W12       30.00R HX  81
MICHIGAN CITY* NOT AVBL
RENSSELAER*    NOT AVBL
$$

LMZ740>746-011700-
SOUTHERN LAKE MICHIGAN

STATION/POSITION TIME  SKY/WX   TEMP WIND        PRES    VSBY
                                AIR  DIR/SP/G
                 (UTC)          (F)  (DEG/KT/KT) (MB)    (MI)
HARRISON CRIB    1500            77  290/ 11/ 12   N/A
BURNHAM HARBOR   1600            81  290/ 11/ 13   N/A
CALUMET HARBOR   1500            80  240/  5/  6   N/A
BURNS HARBOR     1500            74  270/  6/  7 1015.9F
MICHIGAN CITY    1500            72  230/ 10/ 11   N/A
$$

ABBREVIATIONS USED IN REMARKS
   TC - TEMPERATURE IN CELSIUS
  WCI - WIND CHILL INDEX
   HX - HEAT INDEX
  VSB - VISIBILITY
$$



USA.gov is the U.S. government's official web portal to all federal, state and local government web resources and services.